Fairfield, CA

4:03 AM PDT on March 30, 2017 (GMT -0700)
Travis Air Force Base

Weather History for KSUU - May, 2014

Change the Weather History Date:

Sunday, May 11, 2014

  Actual Average Record
Temperature  
Mean Temperature 67 °F -  
Max Temperature 81 °F 73 °F 92 °F (2013)
Min Temperature 52 °F 47 °F 37 °F (2000)
Cooling Degree Days 2    
Growing Degree Days 17 (Base 50)    
Moisture  
Dew Point 35 °F    
Average Humidity 37    
Maximum Humidity 87    
Minimum Humidity 13    
Precipitation  
Precipitation 0.01 in - - ()
Sea Level Pressure  
Sea Level Pressure 30.06 in    
Wind  
Wind Speed 15 mph (NW)    
Max Wind Speed 29 mph    
Max Gust Speed 36 mph    
Visibility 10 miles    
Events      
Averages and records for this station are not official NWS values.
T = Trace of Precipitation, MM = Missing Value Source: NWS Daily Summary

Daily Weather History Graph

Daily Weather History Graph

Search for Another Location

Airport or City:

Trip Planner

Search our weather history database for the weather conditions in past years. The results will help you decide how hot, cold, wet, or windy it might be!

Date:

Astronomy

May. 11, 2014 Rise Set
Actual Time 6:00 AM PDT 8:08 PM PDT
Civil Twilight 5:30 AM PDT 8:37 PM PDT
Nautical Twilight 4:55 AM PDT 9:13 PM PDT
Astronomical Twilight 4:16 AM PDT 9:52 PM PDT
Moon 5:12 PM PDT (5/11) 4:05 AM PDT (5/11)
Length of Visible Light 15h 06m
Length of Day
14h 08m
Waxing Gibbous, 90% of the Moon is Illuminated
May 11
Waxing Gibbous
May 14
Full
May 21
Last Quarter
May 28
New
Jun 5
First Quarter

Hourly Weather History & Observations

Time (PDT) Temp. Dew Point Humidity Pressure Visibility Wind Dir Wind Speed Gust Speed Precip Events Conditions
12:58 AM 55.6 °F 37.8 °F 51% 30.08 in 10.0 mi NNW 10.4 mph - N/A   Clear
1:58 AM 56.5 °F 33.1 °F 41% 30.09 in 10.0 mi North 13.8 mph - N/A   Clear
2:58 AM 59.2 °F 32.0 °F 36% 30.10 in 10.0 mi North 16.1 mph - N/A   Clear
3:58 AM 59.2 °F 31.8 °F 36% 30.10 in 10.0 mi North 17.3 mph - N/A   Clear
4:58 AM 58.5 °F 32.9 °F 38% 30.09 in 10.0 mi NNW 15.0 mph - N/A   Clear
5:58 AM 58.1 °F 33.6 °F 40% 30.09 in 10.0 mi North 16.1 mph - N/A   Clear
6:58 AM 58.5 °F 34.9 °F 41% 30.10 in 10.0 mi North 17.3 mph 23.0 mph N/A   Clear
7:58 AM 61.9 °F 35.2 °F 37% 30.10 in 10.0 mi North 28.8 mph 34.5 mph N/A   Clear
8:58 AM 64.8 °F 35.6 °F 34% 30.10 in 10.0 mi North 27.6 mph 35.7 mph 0.01 in   Clear
9:58 AM 68.4 °F 35.1 °F 29% 30.10 in 10.0 mi North 25.3 mph 33.4 mph N/A   Clear
10:58 AM 70.5 °F 34.3 °F 26% 30.10 in 10.0 mi North 21.9 mph 28.8 mph N/A   Clear
11:58 AM 73.6 °F 31.8 °F 22% 30.09 in 10.0 mi North 17.3 mph 23.0 mph N/A   Clear
2:58 PM 79.9 °F 29.1 °F 16% 30.03 in 10.0 mi North 13.8 mph 18.4 mph N/A   Clear
3:58 PM 81.0 °F 27.3 °F 14% 30.00 in 10.0 mi NNW 12.7 mph 18.4 mph N/A   Clear
4:58 PM 81.9 °F 26.6 °F 13% 30.00 in 10.0 mi North 10.4 mph - N/A   Clear
5:58 PM 80.8 °F 27.9 °F 14% 29.99 in 10.0 mi WSW 15.0 mph - N/A   Clear
6:58 PM 78.1 °F 32.0 °F 19% 29.98 in 10.0 mi WSW 10.4 mph - N/A   Clear
7:58 PM 69.8 °F 41.0 °F 35% 29.99 in 10.0 mi SW 8.1 mph - 0.00 in   Clear
8:58 PM 57.6 °F 43.0 °F 58% 30.01 in 10.0 mi SSW 10.4 mph - 0.00 in   Clear
9:58 PM 57.0 °F 43.2 °F 60% 30.03 in 10.0 mi SW 5.8 mph - N/A   Clear
10:58 PM 53.4 °F 44.4 °F 72% 30.04 in 10.0 mi WSW 6.9 mph - N/A   Clear
11:58 PM 52.0 °F 48.2 °F 87% 30.04 in 10.0 mi SSW 5.8 mph - N/A   Clear